SHIJIAN-17 (SJ-17)

Last updated on Sept. 28, 2020, 5:45 a.m. UTC

1 41838U 16065A   20271.87608855 -.00000382  00000-0  00000-0 0  9995
2 41838   0.4823  93.9437 0006987 307.0511  43.7834  1.00120996 14265
UTC
Height (km)
Latitude
Longitude
Inclination
Orbital Period
UTC large
Height (km)
Speed (km/s)
/
Latitude / Longitude
Inclination (degrees)
Orbital Period (minutes)
Azimuth
Elevation
Range (km)
Doppler Factor
iOS Compass Heading
iOS Angle

Next 30 passes for location: Hong Kong

Rise time Rise Azimuth (degrees) Set time Set Azimuth (degrees) Duration Max altitude (degrees)

No matching passes for this satellites